Weather reports worldwide

Advertisment
West Freugh, United Kingdom (3132): temperature & dewpoint: 19.06.2017 23:00:00 - 25.06.2017 23:00:00 (BST)West Freugh, United Kingdom (3132): temperature 5cm: 19.06.2017 23:00:00 - 25.06.2017 23:00:00 (BST)West Freugh, United Kingdom (3132): temperature -20cm & temperature -100cm: 19.06.2017 23:00:00 - 25.06.2017 23:00:00 (BST)West Freugh, United Kingdom (3132): wind speed & gusts: 19.06.2017 23:00:00 - 25.06.2017 23:00:00 (BST)West Freugh, United Kingdom (3132): wind direction: 19.06.2017 23:00:00 - 25.06.2017 23:00:00 (BST)West Freugh, United Kingdom (3132): reduced air pressure: 19.06.2017 23:00:00 - 25.06.2017 23:00:00 (BST)West Freugh, United Kingdom (3132): visibility: 19.06.2017 23:00:00 - 25.06.2017 23:00:00 (BST)West Freugh, United Kingdom (3132): precipitation: 19.06.2017 23:00:00 - 25.06.2017 23:00:00 (BST)
Date & Time tt [°C] td [°C] tt 5cm [°C] tt -20cm [°C] tt -100cm [°C] ff [km/h] ff [kn] fx [km/h] fx [kn] dd ppp [hPa] vv [km] rr [mm]
25.06.2017 23:00:00 10,3 7,9 - - - 13 7 - - NW 1013,7 30 0,0
25.06.2017 22:00:00 11,1 8,4 - - - 15 8 - - NW 1013,3 30 0,0
25.06.2017 21:00:00 12,3 8,4 - - - 18 10 - - NW 1012,9 26 0,0
25.06.2017 20:00:00 13,7 8,5 - - - 22 12 - - NW 1012,8 29 0,0
25.06.2017 19:00:00 13,6 8,5 - - - 26 14 - - NW 1012,2 30 0,0
25.06.2017 18:00:00 14,8 8,7 - - - 26 14 - - NW 1011,8 30 0,0
25.06.2017 17:00:00 14,6 8,1 - - - 28 15 - - NW 1011,5 40 0,0
25.06.2017 16:00:00 13,9 7,8 - - - 22 12 - - WNW 1011,5 40 0,0
25.06.2017 15:00:00 14,6 8,2 - - - 22 12 - - WNW 1011,2 35 0,0
25.06.2017 14:00:00 13,9 7,1 - - - 22 12 - - NW 1010,9 40 0,0
25.06.2017 13:00:00 14,7 8,3 - - - 21 11 - - WNW 1010,4 35 0,0
25.06.2017 12:00:00 14,4 7,5 - - - 28 15 - - W 1010,4 35 0,0
25.06.2017 11:00:00 14,2 7,6 - - - 24 13 - - W 1010,0 35 0,0
25.06.2017 10:00:00 14,1 9,5 - 15,9 15,2 21 11 - - W 1009,7 35 0,0
25.06.2017 09:00:00 13,2 8,6 - - - 18 10 - - W 1009,3 17 0,0
25.06.2017 08:00:00 12,1 8,4 - - - 21 11 - - W 1009,1 21 0,0
25.06.2017 07:00:00 11,8 8,8 - - - 18 10 - - W 1008,8 24 0,0
25.06.2017 06:00:00 10,8 9,1 - - - 15 8 - - W 1008,7 23 0,0
25.06.2017 05:00:00 10,4 8,9 - - - 11 6 - - WSW 1008,4 26 0,0
25.06.2017 04:00:00 11,0 9,4 - - - 15 8 - - W 1008,5 30 0,0
25.06.2017 03:00:00 10,5 9,2 - - - 18 10 - - W 1008,5 25 0,0
25.06.2017 02:00:00 10,9 9,1 - - - 18 10 - - W 1008,6 24 0,0
25.06.2017 01:00:00 11,5 9,4 - - - 11 6 - - W 1008,8 24 0,0
25.06.2017 00:00:00 12,2 8,6 - - - 16 9 - - WNW 1009,1 40 0,0
24.06.2017 23:00:00 12,4 8,0 - - - 18 10 - - W 1009,3 27 0,0
24.06.2017 22:00:00 12,7 8,5 - - - 16 9 - - WNW 1009,3 30 0,0
24.06.2017 21:00:00 13,3 8,6 - - - 15 8 - - WNW 1009,1 24 0,0
24.06.2017 20:00:00 13,9 8,3 - - - 21 11 - - W 1008,9 35 0,0
24.06.2017 19:00:00 14,7 9,3 - - - 15 8 - - WNW 1008,8 30 0,0
24.06.2017 18:00:00 15,3 8,7 - - - 22 12 - - WNW 1008,9 35 0,0
24.06.2017 17:00:00 15,4 8,2 - - - 22 12 - - W 1009,1 50 0,0
24.06.2017 16:00:00 16,5 8,5 - - - 24 13 - - W 1009,5 28 0,0
24.06.2017 15:00:00 15,2 8,7 - - - 26 14 - - W 1009,7 35 0,0
24.06.2017 14:00:00 16,1 9,9 - - - 22 12 - - W 1010,1 45 0,0
24.06.2017 13:00:00 15,3 8,0 - - - 26 14 - - W 1010,0 30 0,0
24.06.2017 12:00:00 14,7 8,2 - - - 24 13 - - W 1010,1 23 0,0
24.06.2017 11:00:00 14,3 10,2 - - - 21 11 - - WSW 1009,9 45 0,0
24.06.2017 10:00:00 13,9 11,4 - 16,0 15,2 21 11 - - WSW 1010,0 40 0,0
24.06.2017 09:00:00 12,9 10,9 - - - 24 13 - - WSW 1010,1 30 0,0
24.06.2017 08:00:00 11,7 10,5 - - - 18 10 - - WSW 1010,2 25 0,0
24.06.2017 07:00:00 11,6 10,2 - - - 21 11 - - WSW 1010,1 12 0,0
24.06.2017 06:00:00 11,6 9,6 - - - 18 10 - - SW 1010,0 35 0,0
24.06.2017 05:00:00 10,8 8,7 - - - 11 6 - - WSW 1010,3 30 0,0
24.06.2017 04:00:00 11,2 8,5 - - - 15 8 - - WSW 1010,6 40 0,0
24.06.2017 03:00:00 10,7 8,9 - - - 13 7 - - W 1010,8 35 0,0
24.06.2017 02:00:00 10,6 9,8 - - - 9 5 - - WSW 1010,8 17 0,0
24.06.2017 01:00:00 10,7 9,9 - - - 8 4 - - W 1010,7 18 0,0
24.06.2017 00:00:00 10,6 9,6 - - - 5 3 - - W 1010,7 21 0,0
23.06.2017 23:00:00 10,4 8,8 - - - 5 3 - - W 1010,8 24 0,0
23.06.2017 22:00:00 11,4 9,2 - - - 9 5 - - NNW 1010,8 23 0,0
23.06.2017 21:00:00 13,1 9,1 - - - 15 8 - - NW 1010,5 27 0,0
23.06.2017 20:00:00 14,2 9,4 - - - 15 8 - - NNW 1010,3 30 0,0
23.06.2017 19:00:00 14,4 10,3 - - - 11 6 - - NNW 1010,1 35 0,0
23.06.2017 18:00:00 14,8 11,1 - - - 15 8 - - NNW 1009,9 30 0,0
23.06.2017 17:00:00 14,7 11,7 - - - 15 8 - - NNW 1010,0 30 0,0
23.06.2017 16:00:00 14,5 11,7 - - - 18 10 - - NNW 1009,8 30 0,0
23.06.2017 15:00:00 14,9 12,9 - - - 9 5 - - NNW 1009,6 29 0,0
23.06.2017 14:00:00 13,9 12,0 - - - 15 8 - - NW 1009,4 25 0,0
23.06.2017 13:00:00 13,8 13,2 - - - 9 5 - - NW 1008,9 23 0,2
23.06.2017 12:00:00 13,6 12,9 - - - 15 8 - - NW 1008,7 6 0,0
23.06.2017 11:00:00 15,4 14,4 - - - 24 13 - - SW 1008,1 40 0,0
23.06.2017 10:00:00 14,8 14,3 - 16,7 15,2 26 14 - - SW 1007,9 19 0,0
23.06.2017 09:00:00 13,9 13,3 - - - 22 12 - - SW 1007,9 17 0,0
23.06.2017 08:00:00 13,5 12,6 - - - 21 11 - - SSW 1007,9 12 0,0
23.06.2017 07:00:00 13,4 12,7 - - - 13 7 - - S 1007,3 14 0,0
23.06.2017 06:00:00 13,0 12,3 - - - 21 11 - - SSW 1007,4 16 0,4
23.06.2017 05:00:00 12,7 12,2 - - - 26 14 - - SSW 1007,2 2,6 3,6
23.06.2017 04:00:00 12,8 12,0 - - - 31 17 46 25 SSW 1007,9 4,1 1,8
23.06.2017 03:00:00 12,9 12,0 - - - 18 10 - - SSW 1008,4 16 1,8
23.06.2017 02:00:00 12,9 12,0 - - - 15 8 - - SSE 1009,3 16 1,0
23.06.2017 01:00:00 12,9 11,3 - - - 22 12 - - SSW 1009,6 35 0,8
23.06.2017 00:00:00 13,5 10,8 - - - 18 10 - - SW 1010,1 35 0,0
22.06.2017 23:00:00 13,3 11,6 - - - 13 7 - - SW 1010,6 30 0,0
22.06.2017 22:00:00 13,8 12,2 - - - 8 4 - - S 1010,6 27 0,0
22.06.2017 21:00:00 14,1 11,8 - - - 8 4 - - S 1010,7 30 0,0
22.06.2017 20:00:00 14,2 11,5 - - - 9 5 - - SSW 1011,3 35 0,0
22.06.2017 19:00:00 13,9 10,7 - - - 18 10 - - SSW 1011,7 30 0,0
22.06.2017 18:00:00 16,3 10,7 - - - 15 8 - - W 1011,2 45 0,0
22.06.2017 17:00:00 17,5 10,9 - - - 11 6 - - W 1011,3 40 0,0
22.06.2017 16:00:00 16,2 10,5 - - - 15 8 - - WNW 1011,7 45 0,0
22.06.2017 15:00:00 16,6 10,7 - - - 16 9 - - WNW 1012,0 30 0,0
22.06.2017 14:00:00 15,5 10,3 - - - 21 11 - - NW 1011,9 45 0,0
22.06.2017 13:00:00 14,8 9,3 - - - 22 12 - - NW 1011,8 40 0,0
22.06.2017 12:00:00 15,2 10,1 - - - 24 13 - - NW 1011,4 50 0,0
22.06.2017 11:00:00 14,0 9,1 - - - 22 12 - - NW 1011,5 35 0,0
22.06.2017 10:00:00 14,4 10,9 - 16,7 15,0 24 13 - - NW 1011,0 40 0,0
22.06.2017 09:00:00 13,0 11,4 - - - 24 13 - - NW 1010,7 40 0,0
22.06.2017 08:00:00 12,7 11,8 - - - 21 11 - - NW 1010,2 23 0,0
22.06.2017 07:00:00 12,7 12,5 - - - 24 13 - - NW 1009,7 6 0,0
22.06.2017 06:00:00 12,9 12,7 - - - 18 10 - - NW 1009,2 2,3 0,0
22.06.2017 05:00:00 13,2 12,6 - - - 18 10 - - NW 1009,3 12 0,0
22.06.2017 04:00:00 13,2 12,5 - - - 18 10 - - NW 1009,1 21 0,0
22.06.2017 03:00:00 13,4 12,8 - - - 21 11 - - NW 1008,9 8 0,0
22.06.2017 02:00:00 14,0 13,0 - - - 15 8 - - NW 1009,0 14 0,0
22.06.2017 01:00:00 14,7 13,1 - - - 16 9 - - NW 1009,0 16 0,0
22.06.2017 00:00:00 15,2 13,7 - - - 21 11 - - NNW 1009,0 10 0,0
21.06.2017 23:00:00 15,3 13,6 - - - 26 14 - - NW 1008,7 12 0,0
21.06.2017 22:00:00 16,4 15,3 - - - 13 7 - - NW 1008,8 5 0,0
21.06.2017 21:00:00 17,3 15,6 - - - 8 4 - - SE 1008,4 7 0,0
21.06.2017 20:00:00 18,7 16,6 - - - 5 3 - - SE 1008,5 9 0,0
21.06.2017 19:00:00 18,3 16,3 - - - 15 8 - - SE 1009,0 8 0,0
21.06.2017 18:00:00 18,8 16,4 - - - 21 11 - - SE 1009,4 10 0,0
21.06.2017 17:00:00 18,6 16,7 - - - 16 9 - - SSE 1010,4 8 0,0
21.06.2017 16:00:00 18,9 16,8 - - - - - - - - 1010,8 9 0,0
21.06.2017 15:00:00 17,9 16,8 - - - 15 8 - - ESE 1011,9 8 0,2
21.06.2017 14:00:00 16,1 15,3 - - - 18 10 - - SE 1012,8 6 0,4
21.06.2017 13:00:00 16,2 15,0 - - - 22 12 - - ESE 1013,3 7 0,0
21.06.2017 12:00:00 17,4 15,5 - - - 28 15 - - ESE 1013,0 9 0,0
21.06.2017 11:00:00 16,7 15,1 - - - 34 18 - - ESE 1012,9 9 0,0
21.06.2017 10:00:00 16,0 15,2 16,5 17,0 14,9 22 12 - - ESE 1013,8 8 0,0
21.06.2017 09:00:00 16,1 15,2 - - - 31 17 46 25 ESE 1012,9 8 0,0
21.06.2017 08:00:00 15,9 14,5 - - - 26 14 - - E 1014,1 10 0,0
21.06.2017 07:00:00 16,0 14,2 - - - 22 12 - - ESE 1014,7 12 0,0
21.06.2017 06:00:00 16,0 14,0 - - - 16 9 - - ESE 1014,9 23 0,0
21.06.2017 05:00:00 15,7 13,9 - - - 18 10 - - ESE 1015,4 35 0,0
21.06.2017 04:00:00 15,9 14,3 - - - 15 8 - - E 1015,4 35 0,0
21.06.2017 03:00:00 16,2 14,9 - - - 18 10 - - ESE 1016,3 23 0,0
21.06.2017 02:00:00 16,3 15,1 - - - 9 5 - - ESE 1016,9 30 0,0
21.06.2017 01:00:00 16,5 15,4 - - - 13 7 - - SE 1017,3 17 0,0
21.06.2017 00:00:00 14,9 14,3 - - - 13 7 - - E 1016,6 16 0,0
20.06.2017 23:00:00 14,2 12,1 - - - 2 1 - - N 1017,4 21 0,0
20.06.2017 22:00:00 16,0 13,5 - - - 2 1 - - NW 1018,1 30 0,0
20.06.2017 21:00:00 18,2 14,4 - - - 4 2 - - S 1018,5 35 0,0
20.06.2017 20:00:00 18,8 13,9 - - - 4 2 - - SE 1018,6 35 0,0
20.06.2017 19:00:00 20,5 14,4 - - - 9 5 - - SSE 1018,6 40 0,0
20.06.2017 18:00:00 20,5 12,9 - - - 8 4 - - NNW 1018,7 35 0,0
20.06.2017 17:00:00 19,3 11,7 - - - 15 8 - - NW 1019,4 40 0,0
20.06.2017 16:00:00 19,8 11,5 - - - 13 7 - - NNW 1020,0 45 0,0
20.06.2017 15:00:00 19,5 9,2 - - - 16 9 - - NW 1020,3 50 0,0
20.06.2017 14:00:00 18,2 9,3 - - - 16 9 - - NW 1020,6 29 0,0
20.06.2017 13:00:00 17,0 9,9 - - - 21 11 - - NW 1021,2 40 0,0
20.06.2017 12:00:00 17,1 10,0 - - - 16 9 - - NW 1021,3 35 0,0
20.06.2017 11:00:00 16,1 10,8 - - - 18 10 - - NW 1021,5 45 0,0
20.06.2017 10:00:00 15,7 11,1 15,7 16,7 14,7 16 9 - - NW 1021,3 40 0,0
20.06.2017 09:00:00 14,7 10,1 - - - 15 8 - - NW 1021,6 35 0,0
20.06.2017 08:00:00 13,4 8,4 - - - 11 6 - - NNW 1021,6 45 0,0
20.06.2017 07:00:00 11,9 8,1 - - - 11 6 - - NNW 1021,4 40 0,0
20.06.2017 06:00:00 10,6 7,4 - - - 16 9 - - NNW 1021,5 35 0,0
20.06.2017 05:00:00 9,8 7,5 - - - 15 8 - - NNW 1021,5 40 0,0
20.06.2017 04:00:00 10,2 8,6 - - - 13 7 - - NNW 1021,6 45 0,0
20.06.2017 03:00:00 10,4 8,8 - - - 11 6 - - NNW 1021,8 40 0,0
20.06.2017 02:00:00 11,2 9,6 - - - 13 7 - - NNW 1021,8 45 0,0
20.06.2017 01:00:00 11,7 9,9 - - - 16 9 - - NNW 1022,0 30 0,0
20.06.2017 00:00:00 12,4 10,0 - - - 16 9 - - NNW 1022,1 35 0,0
19.06.2017 23:00:00 13,0 9,9 - - - 21 11 - - NNW 1021,8 50 0,0

tt = temperature
td = dewpoint
tt 5cm = temperature 5cm
tt -20cm = temperature -20cm
tt -100cm = temperature -100cm
ff = wind speed
fx = gusts
dd = wind direction
ppp = reduced air pressure
vv = visibility
rr = precipitation

Next stations